| time (UTC) | temp F | wind direction | speed knots | gust knots | rain 1hr in | rain 24hr in | rain mn in | humidity % | barometer mb |
| 20260505051822 | 55 | 19 | 3.5 | 9.6 | 0.00 | 0.00 | 0.00 | 44 | 1005.4 |
| 20260505051321 | 55 | 40 | 3.5 | 8.7 | 0.00 | 0.00 | 0.00 | 45 | 1005.1 |
| 20260505050819 | 55 | 311 | 1.7 | 7.0 | 0.00 | 0.00 | 0.00 | 48 | 1005.0 |
| 20260505050318 | 55 | 29 | 1.7 | 6.1 | 0.00 | 0.00 | 0.00 | 46 | 1005.1 |
| 20260505041327 | 57 | 284 | 2.6 | 6.1 | 0.00 | 0.00 | 0.00 | 43 | 1005.3 |
| 20260505040824 | 57 | 300 | 1.7 | 5.2 | 0.00 | 0.00 | 0.00 | 42 | 1005.3 |
| 20260505040322 | 58 | 298 | 1.7 | 6.1 | 0.00 | 0.00 | 0.00 | 39 | 1005.3 |
| 20260505035818 | 58 | 314 | 0.9 | 4.3 | 0.00 | 0.00 | 0.00 | 39 | 1005.2 |
| 20260505035317 | 58 | 309 | 0.9 | 1.7 | 0.00 | 0.00 | 0.00 | 38 | 1004.9 |
| 20260505034815 | 59 | 304 | 0.0 | 0.9 | 0.00 | 0.00 | 0.00 | 39 | 1004.9 |
| 20260505034312 | 59 | 298 | 0.0 | 0.9 | 0.00 | 0.00 | 0.00 | 41 | 1004.8 |
| 20260505033830 | 59 | 298 | 0.0 | 4.3 | 0.00 | 0.00 | 0.00 | 41 | 1004.8 |
| 20260505033327 | 59 | 298 | 1.7 | 4.3 | 0.00 | 0.00 | 0.00 | 38 | 1004.7 |
| 20260505032825 | 60 | 317 | 1.7 | 3.5 | 0.00 | 0.00 | 0.00 | 37 | 1004.6 |
| 20260505032322 | 60 | 300 | 1.7 | 3.5 | 0.00 | 0.00 | 0.00 | 37 | 1004.7 |
| 20260505031819 | 60 | 313 | 1.7 | 5.2 | 0.00 | 0.00 | 0.00 | 37 | 1004.7 |
| 20260505031317 | 60 | 305 | 1.7 | 5.2 | 0.00 | 0.00 | 0.00 | 37 | 1004.6 |
| 20260505030814 | 60 | 315 | 1.7 | 3.5 | 0.00 | 0.00 | 0.00 | 36 | 1004.5 |
| 20260505030327 | 60 | 312 | 1.7 | 7.0 | 0.00 | 0.00 | 0.00 | 36 | 1004.5 |
| 20260505025822 | 61 | 309 | 2.6 | 7.0 | 0.00 | 0.00 | 0.00 | 36 | 1004.5 |
| 20260505025319 | 61 | 342 | 3.5 | 7.0 | 0.00 | 0.00 | 0.00 | 36 | 1004.5 |
| 20260505024816 | 61 | 325 | 1.7 | 7.0 | 0.00 | 0.00 | 0.00 | 36 | 1004.4 |
| 20260505024314 | 61 | 355 | 0.9 | 16.5 | 0.00 | 0.00 | 0.00 | 36 | 1004.4 |
| 20260505023811 | 61 | 327 | 3.5 | 16.5 | 0.00 | 0.00 | 0.00 | 35 | 1004.1 |
| 20260505023329 | 61 | 24 | 2.6 | 9.6 | 0.00 | 0.00 | 0.00 | 34 | 1004.0 |
| 20260505022828 | 62 | 331 | 2.6 | 9.6 | 0.00 | 0.00 | 0.00 | 35 | 1004.0 |
| 20260505022326 | 62 | 355 | 2.6 | 8.7 | 0.00 | 0.00 | 0.00 | 34 | 1003.6 |
| 20260505021824 | 62 | 277 | 1.7 | 5.2 | 0.00 | 0.00 | 0.00 | 34 | 1003.5 |
| 20260505021323 | 62 | 315 | 0.0 | 8.7 | 0.00 | 0.00 | 0.00 | 37 | 1003.3 |
| 20260505020821 | 63 | 323 | 2.6 | 8.7 | 0.00 | 0.00 | 0.00 | 35 | 1003.2 |
| 20260505020319 | 63 | 337 | 1.7 | 7.0 | 0.00 | 0.00 | 0.00 | 33 | 1003.1 |
| 20260505015815 | 63 | 331 | 2.6 | 7.0 | 0.00 | 0.00 | 0.00 | 34 | 1002.9 |
| 20260505015313 | 63 | 326 | 2.6 | 13.0 | 0.00 | 0.00 | 0.00 | 31 | 1002.9 |
| 20260505014829 | 64 | 9 | 2.6 | 13.0 | 0.00 | 0.00 | 0.00 | 34 | 1002.8 |
| 20260505014327 | 64 | 291 | 2.6 | 7.8 | 0.00 | 0.00 | 0.00 | 31 | 1002.6 |
| 20260505013826 | 64 | 350 | 2.6 | 7.8 | 0.00 | 0.00 | 0.00 | 32 | 1002.5 |
| 20260505013323 | 64 | 355 | 1.7 | 8.7 | 0.00 | 0.00 | 0.00 | 35 | 1002.3 |
| 20260505012821 | 65 | 44 | 3.5 | 8.7 | 0.00 | 0.00 | 0.00 | 33 | 1002.0 |
| 20260505012338 | 65 | 22 | 1.7 | 7.8 | 0.00 | 0.00 | 0.00 | 37 | 1001.9 |
| 20260505011829 | 65 | 313 | 2.6 | 7.8 | 0.00 | 0.00 | 0.00 | 35 | 1001.8 |
| 20260505011327 | 66 | 38 | 3.5 | 13.0 | 0.00 | 0.00 | 0.00 | 33 | 1001.9 |
| 20260505010826 | 66 | 350 | 4.3 | 13.0 | 0.00 | 0.00 | 0.00 | 33 | 1001.6 |
| 20260505010327 | 66 | 15 | 2.6 | 7.0 | 0.00 | 0.00 | 0.00 | 34 | 1001.4 |
| 20260505005822 | 67 | 9 | 2.6 | 7.0 | 0.00 | 0.00 | 0.00 | 33 | 1001.3 |
| 20260505005318 | 67 | 28 | 1.7 | 7.0 | 0.00 | 0.00 | 0.00 | 32 | 1001.0 |
| 20260505004837 | 68 | 333 | 2.6 | 7.0 | 0.00 | 0.00 | 0.00 | 31 | 1000.8 |
| 20260505004328 | 68 | 343 | 2.6 | 12.2 | 0.00 | 0.00 | 0.00 | 32 | 1000.7 |
| 20260505003827 | 69 | 355 | 3.5 | 12.2 | 0.00 | 0.00 | 0.00 | 32 | 1000.6 |
| 20260505003324 | 70 | 360 | 4.3 | 12.2 | 0.00 | 0.00 | 0.00 | 31 | 1000.4 |
| 20260505002822 | 70 | 312 | 5.2 | 12.2 | 0.00 | 0.00 | 0.00 | 31 | 1000.2 |
| 20260505002320 | 71 | 47 | 4.3 | 11.3 | 0.00 | 0.00 | 0.00 | 31 | 1000.1 |
| 20260505001818 | 71 | 346 | 3.5 | 12.2 | 0.00 | 0.00 | 0.00 | 33 | 1000.1 |
| 20260505001317 | 72 | 341 | 4.3 | 12.2 | 0.00 | 0.00 | 0.00 | 30 | 1000.0 |
| 20260505000814 | 72 | 66 | 2.6 | 11.3 | 0.00 | 0.00 | 0.00 | 30 | 999.8 |
| 20260505000315 | 73 | 348 | 4.3 | 12.2 | 0.00 | 0.00 | 0.00 | 31 | 999.7 |
| 20260504235830 | 73 | 17 | 4.3 | 12.2 | 0.00 | 0.00 | 0.00 | 30 | 999.5 |
| 20260504235327 | 73 | 355 | 4.3 | 11.3 | 0.00 | 0.00 | 0.00 | 31 | 999.4 |
| 20260504234821 | 74 | 288 | 2.6 | 10.4 | 0.00 | 0.00 | 0.00 | 31 | 999.3 |
| 20260504234320 | 74 | 28 | 2.6 | 7.8 | 0.00 | 0.00 | 0.00 | 32 | 999.2 |
| 20260504233817 | 75 | 21 | 1.7 | 16.5 | 0.00 | 0.00 | 0.00 | 31 | 999.1 |
| 20260504233317 | 75 | 258 | 4.3 | 16.5 | 0.00 | 0.00 | 0.00 | 30 | 999.0 |
| 20260504232815 | 76 | 323 | 4.3 | 12.2 | 0.00 | 0.00 | 0.00 | 29 | 999.0 |
| 20260504232314 | 76 | 337 | 6.1 | 12.2 | 0.00 | 0.00 | 0.00 | 29 | 999.0 |
| 20260504231812 | 76 | 298 | 2.6 | 8.7 | 0.00 | 0.00 | 0.00 | 33 | 999.1 |
| 20260504231329 | 76 | 44 | 1.7 | 13.9 | 0.00 | 0.00 | 0.00 | 33 | 999.0 |
| 20260504230827 | 77 | 64 | 2.6 | 13.9 | 0.00 | 0.00 | 0.00 | 33 | 998.8 |
| 20260504230326 | 77 | 22 | 6.1 | 11.3 | 0.00 | 0.00 | 0.00 | 32 | 998.7 |
| 20260504225820 | 77 | 344 | 5.2 | 9.6 | 0.00 | 0.00 | 0.00 | 32 | 998.8 |
| 20260504225336 | 77 | 50 | 3.5 | 9.6 | 0.00 | 0.00 | 0.00 | 33 | 998.8 |
| 20260504224828 | 77 | 21 | 4.3 | 10.4 | 0.00 | 0.00 | 0.00 | 34 | 998.7 |
| 20260504224324 | 77 | 132 | 3.5 | 16.5 | 0.00 | 0.00 | 0.00 | 35 | 998.7 |
| 20260504223821 | 77 | 305 | 2.6 | 7.8 | 0.00 | 0.00 | 0.00 | 39 | 998.7 |
| 20260504223318 | 77 | 355 | 1.7 | 7.8 | 0.00 | 0.00 | 0.00 | 38 | 998.6 |
| 20260504222815 | 77 | 230 | 0.9 | 7.8 | 0.00 | 0.00 | 0.00 | 38 | 998.4 |
| 20260504222315 | 77 | 255 | 1.7 | 7.0 | 0.00 | 0.00 | 0.00 | 37 | 998.1 |
| 20260504221813 | 76 | 319 | 1.7 | 5.2 | 0.00 | 0.00 | 0.00 | 45 | 998.1 |
| 20260504221312 | 75 | 223 | 2.6 | 5.2 | 0.00 | 0.00 | 0.00 | 44 | 998.0 |
| 20260504220829 | 75 | 215 | 0.0 | 4.3 | 0.00 | 0.00 | 0.00 | 50 | 998.3 |
| 20260504220326 | 75 | 198 | 0.9 | 4.3 | 0.00 | 0.00 | 0.00 | 44 | 998.4 |
| 20260504215822 | 75 | 200 | 0.9 | 4.3 | 0.00 | 0.00 | 0.00 | 43 | 998.3 |
| 20260504215319 | 76 | 196 | 1.7 | 7.0 | 0.00 | 0.00 | 0.00 | 40 | 998.5 |
| 20260504214817 | 77 | 257 | 2.6 | 7.0 | 0.00 | 0.00 | 0.00 | 38 | 998.5 |
| 20260504214316 | 78 | 198 | 2.6 | 6.1 | 0.00 | 0.00 | 0.00 | 37 | 998.5 |
| 20260504213814 | 77 | 245 | 0.9 | 3.5 | 0.00 | 0.00 | 0.00 | 40 | 998.5 |
| 20260504213315 | 76 | 209 | 0.9 | 4.3 | 0.00 | 0.00 | 0.00 | 43 | 998.6 |
| 20260504212814 | 74 | 208 | 2.6 | 7.0 | 0.00 | 0.00 | 0.00 | 45 | 998.7 |
| 20260504212313 | 73 | 221 | 3.5 | 7.8 | 0.00 | 0.00 | 0.00 | 46 | 998.8 |
| 20260504211811 | 74 | 209 | 3.5 | 12.2 | 0.00 | 0.00 | 0.00 | 44 | 998.7 |
| 20260504211331 | 75 | 195 | 3.5 | 12.2 | 0.00 | 0.00 | 0.00 | 40 | 999.0 |
| 20260504210829 | 75 | 278 | 0.9 | 7.0 | 0.00 | 0.00 | 0.00 | 39 | 998.8 |
| 20260504210328 | 75 | 329 | 1.7 | 7.0 | 0.00 | 0.00 | 0.00 | 48 | 998.8 |
| 20260504205823 | 75 | 305 | 2.6 | 8.7 | 0.00 | 0.00 | 0.00 | 39 | 998.6 |
| 20260504205320 | 74 | 22 | 3.5 | 8.7 | 0.00 | 0.00 | 0.00 | 45 | 998.6 |
| 20260504204817 | 72 | 327 | 0.9 | 6.1 | 0.00 | 0.00 | 0.00 | 49 | 999.0 |
| 20260504204315 | 72 | 296 | 1.7 | 7.8 | 0.00 | 0.00 | 0.00 | 50 | 998.9 |
| 20260504203813 | 74 | 327 | 1.7 | 10.4 | 0.00 | 0.00 | 0.00 | 50 | 999.0 |
| 20260504203331 | 80 | 338 | 4.3 | 10.4 | 0.00 | 0.00 | 0.00 | 30 | 999.0 |
| 20260504202828 | 80 | 302 | 1.7 | 7.8 | 0.00 | 0.00 | 0.00 | 29 | 998.6 |
| 20260504202323 | 81 | 213 | 0.9 | 7.8 | 0.00 | 0.00 | 0.00 | 30 | 998.7 |
| 20260504201822 | 81 | 312 | 3.5 | 7.0 | 0.00 | 0.00 | 0.00 | 30 | 998.8 |
| 20260504201318 | 82 | 304 | 3.5 | 7.0 | 0.00 | 0.00 | 0.00 | 29 | 998.9 |
| 20260504200816 | 81 | 227 | 2.6 | 8.7 | 0.00 | 0.00 | 0.00 | 30 | 999.0 |
| 20260504200314 | 81 | 348 | 3.5 | 8.7 | 0.00 | 0.00 | 0.00 | 29 | 999.1 |
| 20260504195829 | 82 | 166 | 2.6 | 9.6 | 0.00 | 0.00 | 0.00 | 29 | 999.0 |
| 20260504195326 | 81 | 149 | 2.6 | 9.6 | 0.00 | 0.00 | 0.00 | 31 | 999.2 |
| 20260504194826 | 80 | 201 | 4.3 | 10.4 | 0.00 | 0.00 | 0.00 | 30 | 999.3 |
| 20260504194324 | 81 | 329 | 4.3 | 12.2 | 0.00 | 0.00 | 0.00 | 29 | 999.3 |
| 20260504193822 | 82 | 323 | 4.3 | 12.2 | 0.00 | 0.00 | 0.00 | 28 | 999.3 |
| 20260504193318 | 82 | 15 | 2.6 | 8.7 | 0.00 | 0.00 | 0.00 | 30 | 999.3 |
| 20260504192816 | 82 | 183 | 2.6 | 7.0 | 0.00 | 0.00 | 0.00 | 30 | 999.3 |
| 20260504192314 | 81 | 313 | 3.5 | 9.6 | 0.00 | 0.00 | 0.00 | 30 | 999.5 |
| 20260504191813 | 80 | 332 | 2.6 | 8.7 | 0.00 | 0.00 | 0.00 | 31 | 999.4 |
| 20260504191331 | 80 | 323 | 4.3 | 8.7 | 0.00 | 0.00 | 0.00 | 29 | 999.4 |
| 20260504190831 | 80 | 271 | 3.5 | 7.0 | 0.00 | 0.00 | 0.00 | 31 | 999.6 |
| 20260504190329 | 80 | 329 | 2.6 | 9.6 | 0.00 | 0.00 | 0.00 | 32 | 999.6 |
| 20260504185822 | 80 | 165 | 4.3 | 9.6 | 0.00 | 0.00 | 0.00 | 31 | 999.7 |
| 20260504185318 | 80 | 340 | 2.6 | 9.6 | 0.00 | 0.00 | 0.00 | 31 | 999.6 |
| 20260504184816 | 80 | 5 | 3.5 | 11.3 | 0.00 | 0.00 | 0.00 | 32 | 999.7 |
| 20260504184316 | 81 | 346 | 4.3 | 11.3 | 0.00 | 0.00 | 0.00 | 31 | 999.8 |
| 20260504183813 | 80 | 287 | 3.5 | 11.3 | 0.00 | 0.00 | 0.00 | 31 | 999.8 |
| 20260504183326 | 80 | 180 | 3.5 | 11.3 | 0.00 | 0.00 | 0.00 | 32 | 999.8 |
| 20260504182824 | 80 | 238 | 3.5 | 9.6 | 0.00 | 0.00 | 0.00 | 32 | 999.8 |
| 20260504182320 | 81 | 280 | 2.6 | 6.1 | 0.00 | 0.00 | 0.00 | 32 | 999.8 |
| 20260504181817 | 81 | 209 | 1.7 | 7.8 | 0.00 | 0.00 | 0.00 | 32 | 999.9 |
| 20260504181315 | 81 | 165 | 1.7 | 7.8 | 0.00 | 0.00 | 0.00 | 31 | 999.9 |
| 20260504180330 | 80 | 218 | 2.6 | 10.4 | 0.00 | 0.00 | 0.00 | 31 | 999.8 |
| 20260504175824 | 80 | 200 | 2.6 | 10.4 | 0.00 | 0.00 | 0.00 | 31 | 999.8 |
| 20260504175322 | 80 | 360 | 3.5 | 8.7 | 0.00 | 0.00 | 0.00 | 30 | 999.8 |
| 20260504174820 | 81 | 190 | 2.6 | 7.8 | 0.00 | 0.00 | 0.00 | 31 | 999.9 |
| 20260504174319 | 80 | 198 | 1.7 | 8.7 | 0.00 | 0.00 | 0.00 | 32 | 999.8 |
| 20260504173817 | 80 | 238 | 2.6 | 8.7 | 0.00 | 0.00 | 0.00 | 32 | 999.9 |
| 20260504173314 | 80 | 271 | 3.5 | 6.1 | 0.00 | 0.00 | 0.00 | 33 | 999.9 |
| 20260504172812 | 79 | 188 | 2.6 | 7.8 | 0.00 | 0.00 | 0.00 | 35 | 999.9 |
| 20260504172330 | 79 | 323 | 2.6 | 7.8 | 0.00 | 0.00 | 0.00 | 34 | 1000.0 |
| 20260504171824 | 79 | 167 | 1.7 | 8.7 | 0.00 | 0.00 | 0.00 | 35 | 1000.0 |
| 20260504171322 | 79 | 246 | 3.5 | 8.7 | 0.00 | 0.00 | 0.00 | 36 | 1000.2 |
| 20260504170818 | 79 | 236 | 2.6 | 7.0 | 0.00 | 0.00 | 0.00 | 35 | 1000.2 |
| 20260504170316 | 79 | 180 | 1.7 | 7.0 | 0.00 | 0.00 | 0.00 | 37 | 1000.1 |
| 20260504160321 | 75 | 199 | 2.6 | 5.2 | 0.00 | 0.00 | 0.00 | 41 | 1000.8 |
| 20260504150823 | 72 | 238 | 2.6 | 6.1 | 0.00 | 0.00 | 0.00 | 46 | 1001.8 |
| 20260504150320 | 71 | 188 | 2.6 | 7.0 | 0.00 | 0.00 | 0.00 | 46 | 1001.9 |
| 20260504141313 | 63 | 192 | 1.7 | 5.2 | 0.00 | 0.00 | 0.00 | 55 | 1002.1 |
| 20260504140812 | 63 | 202 | 2.6 | 6.1 | 0.00 | 0.00 | 0.00 | 55 | 1002.2 |
| 20260504140331 | 64 | 238 | 3.5 | 6.1 | 0.00 | 0.00 | 0.00 | 55 | 1002.2 |
| 20260504130821 | 55 | 219 | 1.7 | 4.3 | 0.00 | 0.00 | 0.00 | 64 | 1002.7 |
| 20260504110322 | 49 | 197 | 1.7 | 2.6 | 0.00 | 0.00 | 0.00 | 69 | 1003.2 |
| 20260504081824 | 51 | 192 | 0.0 | 1.7 | 0.00 | 0.00 | 0.00 | 61 | 1004.6 |
| 20260504081323 | 51 | 192 | 0.0 | 1.7 | 0.00 | 0.00 | 0.00 | 61 | 1004.7 |
| 20260504080822 | 51 | 192 | 0.9 | 3.5 | 0.00 | 0.00 | 0.00 | 61 | 1004.6 |
| 20260504080317 | 51 | 190 | 0.9 | 2.6 | 0.00 | 0.00 | 0.00 | 61 | 1004.7 |
| 20260504070327 | 53 | 189 | 0.0 | 0.0 | 0.00 | 0.00 | 0.00 | 59 | 1005.1 |